Location: *
(2.5500°S, 65.9667°W)
Time: 21:30:04
(UTC+00:00)

Cosmos 2173 Rocket - Pass Details

Date: 30 May 2022
Orbit: 945 x 1000 km, 83.0° (Epoch: 02 July)

Event Time Altitude Azimuth Distance (km) Brightness Sun altitude
Rises 22:54:32 0° 200° (SSW) 3,670 7.0 -8.6°
Reaches altitude 10° 22:57:16 10° 209° (SSW) 2,712 6.4 -9.2°
Maximum altitude 23:02:48 35° 272° (W) 1,503 5.7 -10.5°
Drops below altitude 10° 23:08:17 10° 336° (NNW) 2,669 7.0 -11.8°
Sets 23:10:58 0° 345° (NNW) 3,605 7.5 -12.4°
